Regional Weather Roundup
Issued by NWS

Home | Current Version | Previous Version | Text Only | Print | Product List | Glossary Off
Versions: 1 2 3 4 5 6 7 8 9 10 11 12 13 14 15 16 17 18 19 20 21 22 23 24 25 26 27 28 29 30 31 32 33 34 35 36 37 38 39 40 41 42 43 44 45 46 47 48 49 50

000
ASUS45 KABQ 230601
RWRNM
WEATHER ROUNDUP FOR NEW MEXICO
NATIONAL WEATHER SERVICE ALBUQUERQUE NM
1100 PM MST SAT NOV 22 2014

NOTE: "FAIR" MEANS FEW OR NO CLOUDS BELOW 12,000 FEET AGL WITH NO
       SIGNIFICANT WEATHER OR OBSTRUCTIONS TO VISION.

      THIS PRODUCT IS RELEASED AS TWO VERSIONS.  ONE VERSION NEAR
      THE TOP OF THE HOUR CONTAINING PRELIMINARY DATA FROM ALBUQUERQUE
      AND OTHER STATIONS.  A FINAL VERSION WITH ADDITIONAL DATA IS
      ISSUED ABOUT 10 MINUTES AFTER THE HOUR.

NMZ501-503-504-510>518-230700-
NORTHWEST PLATEAU/NORTHCENTRAL MOUNTAINS

CITY           SKY/WX    TMP DP  RH WIND       PRES   REMARKS
FARMINGTON     CLOUDY    41  33  73 N8        29.84F
6HR MIN TEMP:  38; 6HR MAX TEMP:  49; 6HR PCP:  0.01;

SANTA FE       PTCLDY    34  14  43 W6        29.83F WCI  29
6HR MIN TEMP:  32; 6HR MAX TEMP:  48;

TAOS           CLEAR     30  19  64 CALM      29.84R

$$
NMZ402-403-502-505>509-230700-
WESTCENTRAL MOUNTAINS/SOUTHWEST MOUNTAINS

CITY           SKY/WX    TMP DP  RH WIND       PRES   REMARKS
GALLUP         CLEAR     40  15  36 SW18      29.91F WCI  31
6HR MIN TEMP:  39; 6HR MAX TEMP:  48;

SILVER CITY    CLEAR     41  16  36 CALM      29.98S

$$
NMZ407-409-411-412-230700-
SOUTHERN DESERTS

CITY           SKY/WX    TMP DP  RH WIND       PRES   REMARKS
LORDSBURG      FAIR      46  21  36 NW12      29.99R
DEMING         CLEAR     49  20  31 SW9       29.93F
6HR MIN TEMP:  49; 6HR MAX TEMP:  60;

HOLLOMAN AFB   PTCLDY    45  19  35 E5        29.84F
T OR C         CLEAR     50  16  25 W8        29.87S
6HR MIN TEMP:  47; 6HR MAX TEMP:  60;


$$
NMZ519>523-230700-
CENTRAL VALLEYS/CENTRAL HIGHLANDS

CITY           SKY/WX    TMP DP  RH WIND       PRES   REMARKS
ALBUQUERQUE    MOCLDY    49  16  26 SW13      29.84F
6HR MIN TEMP:  41; 6HR MAX TEMP:  55;

DOUBLE EAGLE   MOCLDY    46  17  31 W18G24    29.84F
MORIARTY ARPT  FAIR      41  17  37 CALM      29.83F
6HR MIN TEMP:  39; 6HR MAX TEMP:  47;

CLINES CORNERS PTCLDY    38  16  40 W16       29.82R WCI  29
6HR MIN TEMP:  38; 6HR MAX TEMP:  43;

BELEN          FAIR      47  16  29 SW5       29.86F
6HR MIN TEMP:  43; 6HR MAX TEMP:  56;

SOCORRO        NOT AVBL

$$
NMZ524>526-539-540-230700-
SOUTHCENTRAL MOUNTAINS

CITY           SKY/WX    TMP DP  RH WIND       PRES   REMARKS
RUIDOSO        NOT AVBL

$$
NMZ527>531-230700-
NORTHEAST HIGHLANDS/NORTHEAST PLAINS

CITY           SKY/WX    TMP DP  RH WIND       PRES   REMARKS
LAS VEGAS      PTCLDY    43  19  38 CALM      29.72F
6HR MIN TEMP:  41; 6HR MAX TEMP:  49;

RATON          CLEAR     48  16  27 W9G20     29.65F
6HR MIN TEMP:  42; 6HR MAX TEMP:  52;

CLAYTON        PTCLDY    49  16  26 W14       29.56F
6HR MIN TEMP:  41; 6HR MAX TEMP:  57;


$$
NMZ532>537-230700-
EASTCENTRAL PLAINS

CITY           SKY/WX    TMP DP  RH WIND       PRES   REMARKS
TUCUMCARI        N/A     56  17  21 W15       29.61F
6HR MIN TEMP:  52; 6HR MAX TEMP:  61;

CANNON AFB     CLOUDY    48  18  29 W13       29.75S
CLOVIS AIRPORT CLOUDY    52  19  28 W23G29    29.66F

$$
NMZ028-029-538-230700-
SOUTHEAST PLAINS

CITY           SKY/WX    TMP DP  RH WIND       PRES   REMARKS
ROSWELL        PTCLDY    48  25  40 SW14      29.74F
6HR MIN TEMP:  40; 6HR MAX TEMP:  64;

CARLSBAD       CLEAR     58  20  22 W14       29.77F
6HR MIN TEMP:  54; 6HR MAX TEMP:  66;

HOBBS          CLEAR     50  27  40 SW13      29.77F


$$



USA.gov is the U.S. government's official web portal to all federal, state and local government web resources and services.